TIANLIAN 1-04

Last updated on Jan. 19, 2021, 6:23 a.m. UTC

1 41869U 16072A   21018.72084725  .00000032  00000-0  00000-0 0  9996
2 41869   0.1738 266.4042 0017081 185.9815 102.1513  1.00272344 15504
UTC
Height (km)
Latitude
Longitude
Inclination
Orbital Period
UTC large
Height (km)
Speed (km/s)
/
Latitude / Longitude
Inclination (degrees)
Orbital Period (minutes)
Azimuth
Elevation
Range (km)
Doppler Factor
iOS Compass Heading
iOS Angle

Next 30 passes for location: Hong Kong

Rise time Rise Azimuth (degrees) Set time Set Azimuth (degrees) Duration Max altitude (degrees)

No matching passes for this satellites